Tracking 19638 objects as of 19-Apr-2019
HD Live streaming from Space Station
objects crossing your sky now

COSMOS 1823 DEB

Track COSMOS 1823 DEB now!
10-day predictions


NORAD ID: 27742
Int'l Code: 1987-020DV
Perigee: 699.6 km
Apogee: 906.6 km
Inclination: 74.2 °
Period: 100.8 minutes
Semi major axis: 7174 km
RCS: 0.0054 m2 (small)
Launch date: February 20, 1987
Source: Commonwealth of Independent States (former USSR) (CIS)
Launch site: PLESETSK MISSILE AND SPACE COMPLEX (PKMTR)

Note: This is SATELLITE DEBRIS
aabbcc
Your satellite tracking list
Your tracking list is empty




NASA's NSSDC Master Catalog

Two Line Element Set (TLE):
1 27742U 87020DV  19107.72852501 +.00039177 +00000-0 +13854-1 0  9996
2 27742 074.1607 358.0833 0144254 076.0114 285.7027 14.28729642293761
Source of the keplerian elements: AFSPC